COSMOS 2251 DEB, 33830

Orbit data source: Space-Track

COSMOS 2251 DEB, 33830 is space debris in LEO originally from a launch on Wed, 16 Jun 1993 UTC launched from the Plesetsk Missile And Space Complex (PKMTR). The debris from Iridium 33, an American commercial communications satellite, has been tracked extensively since its accidental collision with the defunct Russian satellite Cosmos 2251 in 2009. This event, occurring at high speed in low Earth orbit (LEO), generated thousands of pieces of space debris, significantly increasing the risk of further collisions. The Iridium 33 debris cloud has impacted space traffic management and orbital debris mitigation strategies, making it a subject of ongoing study in space situational awareness.

Loading next visibility...
Identifier
33830, 1993-036BX
Orbit
LEO
Country
Flag of CISCIS
Related business
Manufacturer
Unknown
Mission
Spacecraft
Bus & Motor
Unknown
Mass
Unknown
Launch date (UTC)
1993-06-16 (33 years ago)
Launch vehicle
Unknown
Launch site
Plesetsk Missile And Space Complex (PKMTR)
Object type
Payload
Rocket body
Debris
Shape & HBR
Unknown shape, 0.2 m
Radar Cross Section
Medium (>0.1 m² and <1 m²)

Expand to show TLE details & history
Last TLE update: 11 hours ago

TLE from 11 hours ago
0 COSMOS 2251 DEB
1 33830U 93036BX  26120.01142411  .00005368  00000-0  72502-3 0  9994
2 33830  74.0315 318.8457 0041035  46.4348 105.6892 14.78729929915146
Epoch: 2026-04-30T00:16Z
TLE epoch observation values (Epoch: 2026-04-30T00:16:27.043Z)
Latitude
26.32504°
Longitude
-91.32607°
Altitude
644.157 km
Speed
7.534 km/s
True Right ascension
08h 43m 00s
True Declination
26° 11' 11"
Sunlit
Object was in daylight at epoch
Visualization orbit readout
Latitude
Unknown
Longitude
Unknown
Altitude
Unknown
Speed
Unknown
Apparent Right ascension
Unknown
Apparent Declination
Unknown
Sunlit
N/A
Visualization observer readout
Local Sidereal Time
18:31:44
Azimuth
Unknown
Elevation
Unknown
Doppler factor
Unknown
Orbital elements
Apogee altitude
659.675 km
Perigee altitude
602.152 km
Semi-major axis
7,009.05 km
Eccentricity
0.0041
Inclination
74.0315°
RAAN
318.8457°
Arg. of periapsis
46.4348°
True anomaly
106.14128°
Mean anomaly
105.6892°
Eccentric anomaly
105.9153°
Mean motion
3.69875 °/min
Orbital period
97.33 mins
BSTAR
0.00072502
Loading maneuver chart data...
Computing Atmospheric mass density...

Documentation

Showing up to 5 results
|